EW6895 Weather Reports


Display with metric or nautical units.
time (UTC)temp
F
wind
direction
speed
MPH
gust
MPH
rain 1hr
in
rain 24hr
in
rain mn
in
humidity
%
barometer
mb
20220522135831 61 351 4.0 12.0 0.00 0.01 0.00 76 1022.8
20220522135326 61 354 5.0 14.0 0.00 0.01 0.00 77 1022.8
20220522134819 61 8 6.0 14.0 0.00 0.01 0.00 76 1022.7
20220522134313 61 3 4.0 12.0 0.00 0.01 0.00 76 1022.7
20220522133827 61 354 2.0 13.0 0.00 0.01 0.00 76 1022.6
20220522133318 61 359 5.0 12.0 0.00 0.01 0.00 76 1022.5
20220522132817 61 352 3.0 12.0 0.00 0.01 0.00 76 1022.6
20220522132329 61 354 5.0 13.0 0.00 0.01 0.00 76 1022.4
20220522131820 61 342 4.0 13.0 0.00 0.01 0.00 76 1022.4
20220522131328 61 348 3.0 13.0 0.00 0.01 0.00 76 1022.2
20220522130816 61 1 5.0 13.0 0.00 0.01 0.00 76 1022.2
20220522130311 61 359 5.0 13.0 0.00 0.01 0.00 75 1021.9
20220522125825 61 357 6.0 12.0 0.00 0.01 0.00 75 1021.8
20220522125319 62 11 5.0 12.0 0.00 0.01 0.00 74 1021.7
20220522124819 62 54 4.0 12.0 0.00 0.01 0.00 75 1021.7
20220522124315 62 18 4.0 12.0 0.00 0.01 0.00 74 1021.7
20220522123829 62 355 3.0 16.0 0.00 0.01 0.00 75 1021.3
20220522123325 62 9 4.0 16.0 0.00 0.01 0.00 74 1021.0
20220522122821 62 18 6.0 15.0 0.00 0.01 0.00 74 1021.0
20220522122314 62 350 5.0 15.0 0.00 0.01 0.00 74 1021.1
20220522121827 62 23 6.0 15.0 0.00 0.01 0.00 73 1021.0
20220522121320 62 10 6.0 16.0 0.00 0.01 0.00 73 1021.0
20220522120815 62 350 6.0 16.0 0.00 0.01 0.00 73 1021.0
20220522120326 62 350 4.0 17.0 0.00 0.01 0.00 72 1021.1
20220522115830 62 350 4.0 17.0 0.00 0.01 0.00 72 1021.0
20220522115326 62 335 4.0 14.0 0.00 0.01 0.00 72 1020.9
20220522114819 62 14 5.0 14.0 0.00 0.01 0.00 72 1020.7
20220522114330 62 12 2.0 15.0 0.00 0.01 0.00 71 1020.6
20220522113814 62 352 7.0 18.0 0.00 0.01 0.00 71 1020.7
20220522113328 63 353 7.0 18.0 0.00 0.01 0.00 71 1020.7
20220522112824 63 352 5.0 14.0 0.00 0.01 0.00 70 1020.8
20220522112319 63 344 3.0 10.0 0.00 0.01 0.00 70 1020.7
20220522111813 63 23 4.0 18.0 0.00 0.01 0.00 71 1020.5
20220522111329 63 4 5.0 18.0 0.00 0.01 0.00 71 1020.6
20220522110821 63 40 4.0 11.0 0.00 0.01 0.00 70 1020.6
20220522110325 63 23 3.0 11.0 0.00 0.01 0.00 70 1020.8
20220522105820 63 350 3.0 16.0 0.00 0.01 0.00 70 1020.8
20220522105323 63 3 6.0 16.0 0.00 0.01 0.00 70 1020.7
20220522104823 63 5 4.0 11.0 0.00 0.01 0.00 70 1020.6
20220522104317 63 10 4.0 13.0 0.00 0.01 0.00 70 1020.5
20220522103829 63 44 6.0 13.0 0.00 0.01 0.00 70 1020.5
20220522103321 63 44 2.0 12.0 0.00 0.01 0.00 70 1020.6
20220522102830 63 28 4.0 15.0 0.00 0.01 0.00 70 1020.4
20220522102321 63 23 5.0 15.0 0.00 0.01 0.00 69 1020.5
20220522101817 63 14 4.0 13.0 0.00 0.01 0.00 69 1020.4
20220522101326 63 354 6.0 14.0 0.00 0.01 0.00 69 1020.3
20220522100826 63 346 4.0 12.0 0.00 0.01 0.00 69 1020.1
20220522100318 63 356 6.0 13.0 0.00 0.01 0.00 69 1019.9
20220522095813 63 23 4.0 15.0 0.00 0.01 0.00 69 1019.6
20220522095329 63 332 6.0 16.0 0.00 0.01 0.00 69 1019.2
20220522094824 63 9 8.0 16.0 0.00 0.01 0.00 69 1019.1
20220522094318 63 28 5.0 13.0 0.00 0.01 0.00 69 1019.1
20220522093825 63 359 5.0 16.0 0.00 0.01 0.00 69 1019.2
20220522093319 63 9 8.0 16.0 0.00 0.01 0.00 69 1019.3
20220522092816 63 2 7.0 20.0 0.00 0.01 0.00 69 1018.9
20220522092329 63 1 8.0 20.0 0.00 0.01 0.00 69 1018.8
20220522091824 63 348 7.0 17.0 0.00 0.01 0.00 70 1018.7
20220522091317 63 14 7.0 17.0 0.00 0.01 0.00 69 1018.5
20220522090813 63 53 7.0 18.0 0.00 0.01 0.00 70 1018.4
20220522090323 63 9 5.0 19.0 0.00 0.01 0.00 71 1018.3
20220522085817 63 342 5.0 22.0 0.00 0.01 0.00 71 1018.0
20220522085313 63 354 9.0 25.0 0.00 0.01 0.00 71 1017.8
20220522084828 63 49 6.0 25.0 0.00 0.01 0.00 71 1017.5
20220522084323 63 18 10.0 21.0 0.00 0.01 0.00 71 1017.4
20220522083815 63 358 6.0 18.0 0.00 0.01 0.00 72 1017.4
20220522083311 63 357 5.0 18.0 0.00 0.01 0.00 71 1017.3
20220522082825 63 353 7.0 24.0 0.00 0.01 0.00 71 1017.2
20220522082319 63 354 8.0 24.0 0.00 0.01 0.00 71 1017.4
20220522081811 63 18 8.0 18.0 0.00 0.01 0.00 71 1017.8
20220522081328 63 346 9.0 18.0 0.00 0.01 0.00 71 1017.7
20220522080820 63 359 5.0 19.0 0.00 0.01 0.00 71 1017.8
20220522080316 63 28 8.0 19.0 0.00 0.01 0.00 70 1017.8
20220522075829 63 23 7.0 20.0 0.00 0.01 0.00 70 1017.9
20220522075316 63 32 7.0 22.0 0.00 0.01 0.00 70 1017.8
20220522074827 63 1 8.0 19.0 0.00 0.01 0.00 70 1018.1
20220522074322 64 10 10.0 18.0 0.00 0.01 0.00 69 1018.2
20220522073819 64 9 6.0 16.0 0.00 0.01 0.00 69 1018.5
20220522073329 64 304 5.0 17.0 0.00 0.01 0.00 69 1018.4
20220522072824 64 1 6.0 17.0 0.00 0.01 0.00 69 1018.4
20220522072312 64 355 3.0 19.0 0.00 0.01 0.00 69 1018.3
20220522071825 64 352 8.0 19.0 0.00 0.01 0.00 69 1018.2
20220522071313 64 358 6.0 16.0 0.00 0.01 0.00 68 1018.4
20220522070828 64 53 3.0 18.0 0.00 0.01 0.00 69 1018.2
20220522070321 64 40 7.0 18.0 0.00 0.01 0.00 69 1018.0
20220522065824 64 3 4.0 17.0 0.00 0.01 0.00 68 1017.9
20220522065312 64 356 7.0 20.0 0.00 0.01 0.00 68 1017.7
20220522064826 64 358 8.0 21.0 0.00 0.01 0.00 68 1017.5
20220522064322 64 9 8.0 20.0 0.00 0.01 0.00 68 1017.7
20220522063827 64 28 8.0 16.0 0.00 0.01 0.00 68 1017.8
20220522063317 64 18 4.0 19.0 0.00 0.01 0.00 68 1017.8
20220522062824 64 32 8.0 19.0 0.00 0.01 0.00 68 1017.9
20220522062320 64 28 6.0 17.0 0.00 0.01 0.00 68 1018.0
20220522061816 64 18 5.0 22.0 0.00 0.01 0.00 68 1018.0
20220522061326 64 8 8.0 24.0 0.00 0.01 0.00 68 1018.0
20220522060816 64 6 12.0 24.0 0.00 0.01 0.00 68 1017.8
20220522060311 64 1 11.0 19.0 0.00 0.01 0.00 68 1017.6
20220522055826 64 55 9.0 20.0 0.00 0.01 0.00 69 1017.5
20220522055315 64 9 9.0 18.0 0.00 0.01 0.00 69 1017.5
20220522054823 64 344 7.0 18.0 0.00 0.01 0.00 69 1017.6
20220522054317 64 37 10.0 18.0 0.00 0.01 0.00 69 1017.4
20220522053829 64 66 5.0 15.0 0.00 0.01 0.00 69 1017.5
20220522053323 64 40 8.0 13.0 0.00 0.01 0.00 69 1017.4
20220522052820 64 18 3.0 15.0 0.00 0.01 0.00 69 1017.5
20220522052330 64 35 5.0 18.0 0.00 0.01 0.00 69 1017.3
20220522051823 63 59 4.0 19.0 0.00 0.01 0.00 69 1017.3
20220522051318 63 1 5.0 15.0 0.00 0.01 0.00 70 1017.5
20220522050830 63 5 2.0 14.0 0.00 0.01 0.00 70 1017.7
20220522050325 63 18 3.0 14.0 0.00 0.01 0.00 71 1017.8
20220522045820 63 354 4.0 12.0 0.00 0.01 0.01 70 1017.9
20220522045312 63 344 5.0 14.0 0.00 0.01 0.01 71 1018.1
20220522044826 63 28 3.0 18.0 0.00 0.01 0.01 72 1018.0
20220522044322 63 18 7.0 18.0 0.00 0.01 0.01 72 1017.5
20220522043813 63 14 5.0 16.0 0.00 0.01 0.01 73 1017.2
20220522043327 63 331 8.0 16.0 0.00 0.01 0.01 73 1016.9
20220522042815 63 5 3.0 11.0 0.00 0.01 0.01 76 1017.0
20220522042320 63 18 4.0 13.0 0.00 0.01 0.01 75 1017.3
20220522041815 63 28 3.0 14.0 0.00 0.01 0.01 77 1017.2
20220522041312 63 28 5.0 17.0 0.00 0.01 0.01 77 1017.0
20220522040828 63 334 6.0 17.0 0.00 0.01 0.01 78 1016.2
20220522040321 63 356 8.0 17.0 0.00 0.01 0.01 78 1016.0
20220522035818 63 355 6.0 18.0 0.00 0.01 0.01 79 1016.0
20220522035311 63 28 6.0 20.0 0.00 0.01 0.01 79 1015.9
20220522034823 63 18 12.0 20.0 0.00 0.01 0.01 79 1015.6
20220522034326 63 40 11.0 17.0 0.00 0.01 0.01 80 1015.8
20220522033815 63 13 8.0 18.0 0.01 0.01 0.01 80 1015.9
20220522033313 63 18 9.0 17.0 0.01 0.01 0.01 80 1015.8
20220522032825 63 349 3.0 9.0 0.01 0.01 0.01 82 1016.3
20220522032321 63 317 0.0 4.0 0.01 0.01 0.01 82 1016.7
20220522031823 63 316 2.0 17.0 0.01 0.01 0.01 83 1016.7
20220522031317 63 353 5.0 20.0 0.01 0.01 0.01 82 1015.7
20220522030813 63 28 10.0 20.0 0.01 0.01 0.01 82 1015.3
20220522030328 63 340 8.0 20.0 0.01 0.01 0.01 84 1015.4
20220522025816 63 320 8.0 18.0 0.01 0.01 0.01 84 1015.1
20220522025316 63 349 7.0 18.0 0.01 0.01 0.01 84 1014.8
20220522024812 63 352 11.0 18.0 0.01 0.01 0.01 84 1015.6
20220522024327 63 18 4.0 12.0 0.01 0.01 0.01 84 1015.8
20220522023820 64 11 4.0 15.0 0.00 0.00 0.00 82 1015.8
20220522023315 64 9 6.0 16.0 0.00 0.00 0.00 80 1015.5
20220522022827 64 18 6.0 17.0 0.00 0.00 0.00 80 1015.4
20220522022319 64 334 10.0 22.0 0.00 0.00 0.00 80 1014.9
20220522021815 64 333 12.0 22.0 0.00 0.00 0.00 80 1015.0
20220522021314 64 324 11.0 20.0 0.00 0.00 0.00 80 1015.1
20220522020824 64 343 9.0 19.0 0.00 0.00 0.00 80 1015.2
20220522020316 64 2 9.0 18.0 0.00 0.00 0.00 80 1015.1
20220522015825 64 23 8.0 18.0 0.00 0.00 0.00 81 1015.0
20220522015321 64 342 6.0 17.0 0.00 0.00 0.00 81 1014.7
20220522014827 64 341 10.0 19.0 0.00 0.00 0.00 81 1014.6
20220522014330 64 356 8.0 19.0 0.00 0.00 0.00 81 1014.8
20220522013819 64 327 8.0 18.0 0.00 0.00 0.00 81 1014.8
20220522013318 65 9 9.0 17.0 0.00 0.00 0.00 80 1014.6
20220522012829 65 354 9.0 16.0 0.00 0.00 0.00 80 1014.1
20220522012322 65 1 7.0 14.0 0.00 0.00 0.00 80 1013.6
20220522011817 65 18 8.0 14.0 0.00 0.00 0.00 80 1013.5
20220522011310 65 18 6.0 19.0 0.00 0.00 0.00 81 1013.5
20220522010824 65 347 8.0 17.0 0.00 0.00 0.00 81 1013.7
20220522010315 66 350 6.0 18.0 0.00 0.00 0.00 80 1013.6
20220522005830 66 18 10.0 18.0 0.00 0.00 0.00 79 1013.5
20220522005325 67 333 9.0 18.0 0.00 0.00 0.00 78 1013.7
20220522004818 67 4 7.0 16.0 0.00 0.00 0.00 79 1013.3
20220522004328 67 347 7.0 19.0 0.00 0.00 0.00 79 1013.2
20220522003820 68 326 9.0 21.0 0.00 0.00 0.00 78 1013.2
20220522003314 68 358 13.0 20.0 0.00 0.00 0.00 77 1013.1
20220522002813 69 351 10.0 17.0 0.00 0.00 0.00 77 1013.1
20220522002323 69 353 10.0 20.0 0.00 0.00 0.00 76 1013.2
20220522001816 70 7 6.0 21.0 0.00 0.00 0.00 76 1013.3
20220522001327 70 340 10.0 21.0 0.00 0.00 0.00 75 1013.3
20220522000822 71 349 6.0 17.0 0.00 0.00 0.00 74 1013.2
20220522000319 72 335 10.0 17.0 0.00 0.00 0.00 74 1013.0
20220521235827 72 345 7.0 18.0 0.00 0.00 0.00 73 1013.2
20220521235322 73 355 7.0 20.0 0.00 0.00 0.00 73 1012.8
20220521234817 73 5 7.0 18.0 0.00 0.00 0.00 72 1012.6
20220521234311 74 5 10.0 18.0 0.00 0.00 0.00 71 1012.7
20220521233823 75 357 12.0 18.0 0.00 0.00 0.00 70 1012.1
20220521233329 76 309 6.0 17.0 0.00 0.00 0.00 70 1011.9
20220521232827 76 18 9.0 18.0 0.00 0.00 0.00 70 1011.8
20220521232322 76 338 11.0 18.0 0.00 0.00 0.00 70 1011.8
20220521231817 77 321 8.0 20.0 0.00 0.00 0.00 69 1011.9
20220521231311 78 315 10.0 18.0 0.00 0.00 0.00 69 1011.9
20220521230824 78 8 7.0 17.0 0.00 0.00 0.00 69 1011.6
20220521230314 79 2 9.0 17.0 0.00 0.00 0.00 68 1011.2
20220521225826 79 23 8.0 18.0 0.00 0.00 0.00 69 1011.2
20220521225311 79 347 9.0 18.0 0.00 0.00 0.00 68 1011.1
20220521224826 80 342 10.0 17.0 0.00 0.00 0.00 68 1011.0
20220521224321 80 32 6.0 18.0 0.00 0.00 0.00 68 1010.6
20220521223813 81 13 9.0 18.0 0.00 0.00 0.00 68 1010.4
20220521223330 81 343 8.0 19.0 0.00 0.00 0.00 67 1010.2
20220521222824 82 339 11.0 19.0 0.00 0.00 0.00 67 1010.1
20220521222318 83 323 7.0 16.0 0.00 0.00 0.00 66 1010.0
20220521221811 83 12 10.0 18.0 0.00 0.00 0.00 67 1010.2
20220521221325 83 18 12.0 18.0 0.00 0.00 0.00 65 1010.0
20220521220814 85 323 11.0 18.0 0.00 0.00 0.00 65 1009.9
20220521220324 85 18 4.0 20.0 0.00 0.00 0.00 66 1009.8
20220521215813 86 1 10.0 17.0 0.00 0.00 0.00 65 1009.9
20220521215326 87 9 8.0 16.0 0.00 0.00 0.00 64 1009.8
20220521214819 89 190 3.0 14.0 0.00 0.00 0.00 61 1009.8
20220521214330 90 186 6.0 11.0 0.00 0.00 0.00 58 1009.8
20220521213824 91 182 1.0 6.0 0.00 0.00 0.00 57 1009.8
20220521213320 91 182 1.0 6.0 0.00 0.00 0.00 57 1009.7
20220521212829 91 183 2.0 6.0 0.00 0.00 0.00 56 1009.7
20220521212325 91 182 2.0 3.0 0.00 0.00 0.00 56 1009.8
20220521211817 91 182 1.0 3.0 0.00 0.00 0.00 56 1009.7
20220521211312 91 182 0.0 5.0 0.00 0.00 0.00 57 1009.8
20220521210820 91 182 1.0 5.0 0.00 0.00 0.00 56 1009.8
20220521210317 91 182 1.0 6.0 0.00 0.00 0.00 56 1009.8
20220521205828 91 182 1.0 5.0 0.00 0.00 0.00 56 1009.9
20220521205322 91 182 2.0 7.0 0.00 0.00 0.00 56 1009.9
20220521204816 91 182 2.0 10.0 0.00 0.00 0.00 56 1009.9
20220521204311 91 182 2.0 10.0 0.00 0.00 0.00 56 1009.9
20220521203824 91 182 2.0 8.0 0.00 0.00 0.00 56 1009.9
20220521203311 91 182 2.0 5.0 0.00 0.00 0.00 56 1009.9
20220521202823 90 182 3.0 5.0 0.00 0.00 0.00 57 1009.9
20220521202317 90 182 3.0 7.0 0.00 0.00 0.00 58 1010.0
20220521201813 90 182 3.0 7.0 0.00 0.00 0.00 57 1009.9
20220521201321 90 182 1.0 3.0 0.00 0.00 0.00 57 1009.9
20220521200816 90 182 1.0 10.0 0.00 0.00 0.00 57 1009.9
20220521200323 90 182 4.0 10.0 0.00 0.00 0.00 57 1009.9
20220521195817 90 183 3.0 9.0 0.00 0.00 0.00 57 1010.0
20220521195312 90 183 2.0 5.0 0.00 0.00 0.00 59 1010.0
20220521194823 90 183 2.0 7.0 0.00 0.00 0.00 58 1010.1
20220521194315 90 183 2.0 7.0 0.00 0.00 0.00 58 1010.1
20220521193812 90 183 3.0 6.0 0.00 0.00 0.00 58 1010.1
20220521193322 90 183 2.0 8.0 0.00 0.00 0.00 59 1010.0
20220521192823 90 183 3.0 8.0 0.00 0.00 0.00 58 1010.0
20220521192315 90 183 4.0 9.0 0.00 0.00 0.00 57 1010.1
20220521191829 90 186 2.0 9.0 0.00 0.00 0.00 56 1010.0
20220521191314 90 187 1.0 8.0 0.00 0.00 0.00 57 1009.9
20220521190828 90 188 2.0 11.0 0.00 0.00 0.00 57 1010.0
20220521190320 91 186 4.0 11.0 0.00 0.00 0.00 56 1010.0
20220521185816 90 188 4.0 10.0 0.00 0.00 0.00 58 1009.9
20220521185315 90 186 3.0 9.0 0.00 0.00 0.00 58 1009.9
20220521184824 90 187 3.0 9.0 0.00 0.00 0.00 58 1009.9
20220521184320 90 187 2.0 8.0 0.00 0.00 0.00 59 1009.9
20220521183813 90 186 2.0 12.0 0.00 0.00 0.00 59 1009.9
20220521183323 89 186 3.0 16.0 0.00 0.00 0.00 59 1009.9
20220521182813 89 185 6.0 12.0 0.00 0.00 0.00 59 1009.9
20220521182327 89 189 3.0 10.0 0.00 0.00 0.00 59 1009.9
20220521181819 89 188 3.0 10.0 0.00 0.00 0.00 61 1009.9
20220521181314 89 186 3.0 9.0 0.00 0.00 0.00 60 1010.0
20220521180829 89 186 3.0 9.0 0.00 0.00 0.00 60 1010.1
20220521180324 89 186 4.0 11.0 0.00 0.00 0.00 61 1010.2
20220521175818 89 186 5.0 11.0 0.00 0.00 0.00 59 1010.2
20220521175313 89 185 2.0 8.0 0.00 0.00 0.00 61 1010.2
20220521174827 89 185 3.0 8.0 0.00 0.00 0.00 61 1010.3
20220521174312 89 185 2.0 11.0 0.00 0.00 0.00 63 1010.3
20220521173826 88 185 3.0 11.0 0.00 0.00 0.00 63 1010.2
20220521173319 88 184 2.0 11.0 0.00 0.00 0.00 63 1010.3
20220521172811 87 184 4.0 12.0 0.00 0.00 0.00 63 1010.2
20220521172323 87 182 5.0 12.0 0.00 0.00 0.00 63 1010.3
20220521171813 87 180 3.0 10.0 0.00 0.00 0.00 65 1010.2
20220521171329 86 180 2.0 14.0 0.00 0.00 0.00 65 1010.2
20220521170814 86 180 4.0 12.0 0.00 0.00 0.00 65 1010.2
20220521170328 86 179 2.0 16.0 0.00 0.00 0.00 65 1010.1
20220521165823 86 179 5.0 16.0 0.00 0.00 0.00 65 1010.1
20220521165324 86 174 4.0 10.0 0.00 0.00 0.00 65 1010.1
20220521164828 86 173 3.0 10.0 0.00 0.00 0.00 66 1010.1
20220521164321 86 169 4.0 10.0 0.00 0.00 0.00 67 1010.0
20220521163816 86 165 2.0 9.0 0.00 0.00 0.00 69 1009.9
20220521163327 85 165 3.0 12.0 0.00 0.00 0.00 68 1009.8
20220521162814 85 177 4.0 12.0 0.00 0.00 0.00 69 1009.9
20220521162329 85 176 2.0 5.0 0.00 0.00 0.00 70 1010.0
20220521161824 85 176 2.0 8.0 0.00 0.00 0.00 70 1010.1
20220521161314 85 176 3.0 8.0 0.00 0.00 0.00 69 1010.0
20220521160828 85 176 2.0 8.0 0.00 0.00 0.00 71 1009.9
20220521160319 84 175 4.0 9.0 0.00 0.00 0.00 70 1009.9
20220521155812 84 171 2.0 8.0 0.00 0.00 0.00 72 1009.9
20220521155320 84 171 2.0 8.0 0.00 0.00 0.00 72 1009.8
20220521154816 84 171 2.0 9.0 0.00 0.00 0.00 72 1009.8
20220521154330 84 171 4.0 9.0 0.00 0.00 0.00 71 1009.9
20220521153825 84 169 3.0 7.0 0.00 0.00 0.00 73 1009.8
20220521153324 84 169 2.0 7.0 0.00 0.00 0.00 74 1009.8
20220521152831 83 169 2.0 11.0 0.00 0.00 0.00 75 1009.6
20220521152324 83 169 2.0 11.0 0.00 0.00 0.00 76 1009.6
20220521151815 82 165 4.0 9.0 0.00 0.00 0.00 76 1009.6
20220521151331 82 162 4.0 8.0 0.00 0.00 0.00 77 1009.6
20220521150823 81 158 2.0 8.0 0.00 0.00 0.00 78 1009.8
20220521150318 81 157 1.0 4.0 0.00 0.00 0.00 79 1009.9
20220521145812 81 157 2.0 4.0 0.00 0.00 0.00 79 1009.9
20220521145329 81 157 1.0 5.0 0.00 0.00 0.00 79 1010.0
20220521144821 80 157 2.0 8.0 0.00 0.00 0.00 79 1010.2
20220521144313 80 178 2.0 6.0 0.00 0.00 0.00 79 1010.1
20220521143828 80 178 2.0 8.0 0.00 0.00 0.00 80 1010.0
20220521143320 80 167 2.0 8.0 0.00 0.00 0.00 79 1009.9
20220521142816 80 184 2.0 8.0 0.00 0.00 0.00 80 1009.8
20220521142324 80 184 2.0 8.0 0.00 0.00 0.00 81 1009.7
20220521141819 80 184 2.0 8.0 0.00 0.00 0.00 82 1009.7
20220521141315 80 184 3.0 6.0 0.00 0.00 0.00 82 1009.5
20220521140825 80 183 1.0 9.0 0.00 0.00 0.00 83 1009.0
20220521140316 80 183 3.0 9.0 0.00 0.00 0.00 84 1008.6